Weather History for KCHO - November, 2012

Change the Weather History Date:

Tuesday, November 13, 2012

  Actual Average Record
Temperature  
Mean Temperature 47 °F 48 °F  
Max Temperature 61 °F 59 °F 79 °F (1931)
Min Temperature 33 °F 37 °F 20 °F (1911)
Degree Days  
Heating Degree Days 18 17  
Month to date heating degree days 239 199  
Since 1 July heating degree days 519 548  
Cooling Degree Days 0 0  
Month to date cooling degree days 0 0  
Year to date cooling degree days 1604 1034  
Moisture  
Dew Point 37 °F    
Average Humidity 66    
Maximum Humidity 93    
Minimum Humidity 39    
Precipitation  
Precipitation 0.43 in 0.11 in 1.77 in (1992)
Month to date precipitation 0.46 1.69  
Year to date precipitation 33.71 37.42  
Sea Level Pressure  
Sea Level Pressure 30.31 in    
Wind  
Wind Speed 6 mph (NNW)    
Max Wind Speed 15 mph    
Max Gust Speed 21 mph    
Visibility 8 miles    
Events Rain    
T = Trace of Precipitation, MM = Missing Value Source: NWS Daily Summary

Daily Weather History Graph

Daily Weather History Graph

Search for Another Location

Airport or City:

Trip Planner

Search our weather history database for the weather conditions in past years. The results will help you decide how hot, cold, wet, or windy it might be!

Date:

Astronomy

Nov. 13, 2012 Rise Set
Actual Time 6:53 AM EST 5:02 PM EST
Civil Twilight 6:25 AM EST 5:30 PM EST
Nautical Twilight 5:53 AM EST 6:02 PM EST
Astronomical Twilight 5:22 AM EST 6:33 PM EST
Moon 6:28 AM EST (11/13) 4:54 PM EST (11/13)
Length of Visible Light 11h 05m
Length of Day
10h 09m
Waning Crescent, 0% of the Moon is Illuminated
Nov 13
Waning Crescent
Nov 13
New
Nov 20
First Quarter
Nov 28
Full
Dec 6
Last Quarter

Hourly Weather History & Observations

Time (EST) Temp. Windchill Dew Point Humidity Pressure Visibility Wind Dir Wind Speed Gust Speed Precip Events Conditions
12:18 AM 60.8 °F - 59.0 °F 94% 30.12 in 1.5 mi Variable 3.5 mph - 0.10 in Rain Heavy Rain
12:29 AM 57.2 °F - 55.4 °F 94% 30.14 in 2.0 mi NW 10.4 mph 20.7 mph 0.14 in Rain Light Rain
12:37 AM 57.2 °F - 53.6 °F 88% 30.15 in 4.0 mi WNW 5.8 mph - 0.15 in Rain Light Rain
12:44 AM 55.4 °F - 53.6 °F 94% 30.15 in 6.0 mi NW 9.2 mph - 0.15 in Rain Light Rain
12:53 AM 55.0 °F - 52.0 °F 89% 30.15 in 8.0 mi WNW 8.1 mph - 0.16 in Rain Light Rain
1:53 AM 50.0 °F - 46.9 °F 89% 30.18 in 6.0 mi NW 6.9 mph - 0.06 in Rain Light Rain
2:53 AM 50.0 °F - 45.0 °F 83% 30.19 in 10.0 mi NNW 6.9 mph - 0.00 in Rain Light Rain
3:53 AM 48.0 °F - 44.1 °F 86% 30.21 in 7.0 mi Calm Calm - 0.01 in Rain Light Rain
4:53 AM 46.9 °F - 44.1 °F 90% 30.24 in 10.0 mi Variable 5.8 mph - 0.04 in Rain Light Rain
5:42 AM 46.4 °F 43.5 °F 42.8 °F 87% 30.26 in 5.0 mi NNW 5.8 mph - 0.03 in Rain Light Rain
5:49 AM 46.4 °F 42.9 °F 42.8 °F 87% 30.27 in 5.0 mi Variable 6.9 mph - 0.04 in Rain Light Rain
5:53 AM 46.0 °F 41.4 °F 42.1 °F 86% 30.26 in 6.0 mi NNW 9.2 mph - 0.04 in Rain Light Rain
6:31 AM 44.6 °F 41.4 °F 42.8 °F 93% 30.29 in 6.0 mi North 5.8 mph - 0.05 in Rain Light Rain
6:53 AM 43.0 °F 39.5 °F 39.0 °F 86% 30.30 in 6.0 mi NNW 5.8 mph - 0.06 in Rain Light Rain
7:53 AM 42.1 °F 40.2 °F 39.0 °F 89% 30.35 in 10.0 mi West 3.5 mph - 0.05 in Rain Light Rain
8:53 AM 44.1 °F 42.5 °F 39.9 °F 85% 30.36 in 10.0 mi NW 3.5 mph - 0.01 in   Overcast
9:53 AM 46.0 °F 43.1 °F 39.9 °F 79% 30.38 in 10.0 mi NNW 5.8 mph - N/A   Overcast
10:53 AM 46.9 °F - 35.1 °F 63% 30.38 in 10.0 mi NNW 8.1 mph - N/A   Mostly Cloudy
11:53 AM 48.0 °F - 30.9 °F 52% 30.36 in 10.0 mi NNW 9.2 mph - N/A   Clear
12:53 PM 48.9 °F - 28.0 °F 44% 30.34 in 10.0 mi NW 6.9 mph - N/A   Clear
1:53 PM 50.0 °F - 27.0 °F 41% 30.33 in 10.0 mi NNW 9.2 mph - N/A   Clear
2:53 PM 50.0 °F - 26.1 °F 39% 30.33 in 10.0 mi NW 8.1 mph - N/A   Clear
3:53 PM 48.9 °F - 25.0 °F 39% 30.35 in 10.0 mi NNW 5.8 mph - N/A   Clear
4:53 PM 46.0 °F 41.4 °F 25.0 °F 44% 30.36 in 10.0 mi NNW 9.2 mph - N/A   Clear
5:53 PM 43.0 °F 37.7 °F 24.1 °F 47% 30.39 in 10.0 mi North 9.2 mph - N/A   Clear
6:53 PM 42.1 °F 37.7 °F 25.0 °F 51% 30.41 in 10.0 mi ENE 6.9 mph - N/A   Clear
7:53 PM 37.9 °F 32.7 °F 27.0 °F 65% 30.43 in 10.0 mi ENE 6.9 mph - N/A   Clear
8:53 PM 37.9 °F 32.7 °F 26.1 °F 62% 30.45 in 10.0 mi ENE 6.9 mph - N/A   Clear
9:53 PM 35.1 °F 29.3 °F 25.0 °F 67% 30.47 in 10.0 mi NNE 6.9 mph - N/A   Clear
10:53 PM 35.1 °F - 25.0 °F 67% 30.48 in 10.0 mi Calm Calm - N/A   Clear
11:53 PM 33.1 °F - 24.1 °F 70% 30.49 in 10.0 mi Calm Calm - N/A   Clear